| time (UTC) | temp F | wind direction | speed MPH | gust MPH | rain 1hr in | rain 24hr in | rain mn in | humidity % | barometer mb |
| 20260506160356 | 79 | 252 | 1.0 | 7.0 | 0.00 | 0.00 | 0.00 | 83 | 1014.1 |
| 20260506155624 | 79 | 201 | 1.0 | 7.0 | 0.00 | 0.00 | 0.00 | 84 | 1014.0 |
| 20260506155126 | 79 | 225 | 1.0 | 5.0 | 0.00 | 0.00 | 0.00 | 84 | 1014.0 |
| 20260506154621 | 79 | 152 | 1.0 | 6.0 | 0.00 | 0.00 | 0.00 | 84 | 1013.9 |
| 20260506154355 | 78 | 188 | 1.0 | 6.0 | 0.00 | 0.00 | 0.00 | 84 | 1013.9 |
| 20260506153622 | 78 | 200 | 2.0 | 9.0 | 0.00 | 0.00 | 0.00 | 84 | 1013.7 |
| 20260506153120 | 78 | 99 | 2.0 | 11.0 | 0.00 | 0.00 | 0.00 | 84 | 1013.7 |
| 20260506152620 | 78 | 205 | 2.0 | 11.0 | 0.00 | 0.00 | 0.00 | 85 | 1013.8 |
| 20260506152122 | 78 | 210 | 2.0 | 6.0 | 0.00 | 0.00 | 0.00 | 86 | 1013.6 |
| 20260506151621 | 78 | 166 | 2.0 | 8.0 | 0.00 | 0.00 | 0.00 | 86 | 1013.7 |
| 20260506151121 | 78 | 200 | 1.0 | 8.0 | 0.00 | 0.00 | 0.00 | 86 | 1013.6 |
| 20260506150621 | 78 | 221 | 2.0 | 9.0 | 0.00 | 0.00 | 0.00 | 86 | 1013.6 |
| 20260506150351 | 78 | 198 | 2.0 | 10.0 | 0.00 | 0.00 | 0.00 | 86 | 1013.5 |
| 20260506145846 | 78 | 180 | 2.0 | 10.0 | 0.00 | 0.00 | 0.00 | 86 | 1013.5 |
| 20260506145114 | 78 | 155 | 3.0 | 10.0 | 0.00 | 0.00 | 0.00 | 86 | 1013.6 |
| 20260506144614 | 78 | 198 | 2.0 | 10.0 | 0.00 | 0.00 | 0.00 | 86 | 1013.5 |
| 20260506144116 | 78 | 192 | 1.0 | 6.0 | 0.00 | 0.00 | 0.00 | 86 | 1013.5 |
| 20260506143613 | 78 | 166 | 1.0 | 7.0 | 0.00 | 0.00 | 0.00 | 86 | 1013.6 |
| 20260506143113 | 78 | 206 | 1.0 | 7.0 | 0.00 | 0.00 | 0.00 | 86 | 1013.6 |
| 20260506142838 | 78 | 213 | 2.0 | 7.0 | 0.00 | 0.00 | 0.00 | 86 | 1013.6 |
| 20260506142337 | 78 | 169 | 2.0 | 8.0 | 0.00 | 0.00 | 0.00 | 86 | 1013.5 |
| 20260506141606 | 78 | 207 | 1.0 | 8.0 | 0.00 | 0.00 | 0.00 | 86 | 1013.6 |
| 20260506141106 | 78 | 254 | 2.0 | 8.0 | 0.00 | 0.00 | 0.00 | 87 | 1013.5 |
| 20260506140608 | 78 | 152 | 2.0 | 8.0 | 0.00 | 0.00 | 0.00 | 87 | 1013.4 |
| 20260506140108 | 78 | 134 | 1.0 | 5.0 | 0.00 | 0.00 | 0.00 | 87 | 1013.3 |
| 20260506135602 | 77 | 230 | 1.0 | 5.0 | 0.00 | 0.00 | 0.00 | 87 | 1013.3 |
| 20260506135101 | 77 | 186 | 1.0 | 5.0 | 0.00 | 0.00 | 0.00 | 88 | 1013.2 |
| 20260506134601 | 77 | 161 | 1.0 | 5.0 | 0.00 | 0.00 | 0.00 | 88 | 1013.3 |
| 20260506134101 | 77 | 207 | 1.0 | 2.0 | 0.00 | 0.00 | 0.00 | 88 | 1013.3 |
| 20260506133602 | 77 | 177 | 1.0 | 3.0 | 0.00 | 0.00 | 0.00 | 88 | 1013.2 |
| 20260506133330 | 77 | 243 | 1.0 | 5.0 | 0.00 | 0.00 | 0.00 | 88 | 1013.1 |
| 20260506132556 | 77 | 177 | 2.0 | 5.0 | 0.00 | 0.00 | 0.00 | 88 | 1013.2 |
| 20260506132053 | 77 | 201 | 1.0 | 5.0 | 0.00 | 0.00 | 0.00 | 88 | 1013.2 |
| 20260506131550 | 77 | 184 | 1.0 | 6.0 | 0.00 | 0.00 | 0.00 | 88 | 1013.1 |
| 20260506131050 | 77 | 158 | 1.0 | 6.0 | 0.00 | 0.00 | 0.00 | 88 | 1013.1 |
| 20260506130819 | 76 | 142 | 1.0 | 5.0 | 0.00 | 0.00 | 0.00 | 88 | 1012.9 |
| 20260506130317 | 76 | 207 | 2.0 | 8.0 | 0.00 | 0.00 | 0.00 | 88 | 1012.9 |
| 20260506125544 | 76 | 156 | 2.0 | 8.0 | 0.00 | 0.00 | 0.00 | 89 | 1012.8 |
| 20260506125044 | 76 | 138 | 2.0 | 6.0 | 0.00 | 0.00 | 0.00 | 89 | 1012.7 |
| 20260506124545 | 76 | 195 | 2.0 | 6.0 | 0.00 | 0.00 | 0.00 | 89 | 1012.7 |
| 20260506124319 | 76 | 204 | 2.0 | 9.0 | 0.00 | 0.00 | 0.00 | 89 | 1012.6 |
| 20260506124043 | 76 | 298 | 2.0 | 5.0 | 0.00 | 0.00 | 0.00 | 89 | 1012.7 |
| 20260506123042 | 76 | 195 | 2.0 | 9.0 | 0.00 | 0.00 | 0.00 | 89 | 1012.6 |
| 20260506122537 | 76 | 246 | 1.0 | 7.0 | 0.00 | 0.00 | 0.00 | 89 | 1012.6 |
| 20260506122037 | 76 | 169 | 1.0 | 5.0 | 0.00 | 0.00 | 0.00 | 90 | 1012.5 |
| 20260506121537 | 76 | 205 | 2.0 | 8.0 | 0.00 | 0.00 | 0.00 | 90 | 1012.5 |
| 20260506121038 | 76 | 158 | 2.0 | 8.0 | 0.00 | 0.00 | 0.00 | 90 | 1012.6 |
| 20260506120538 | 76 | 211 | 1.0 | 6.0 | 0.00 | 0.00 | 0.00 | 90 | 1012.6 |
| 20260506120033 | 75 | 189 | 1.0 | 6.0 | 0.00 | 0.00 | 0.00 | 90 | 1012.4 |
| 20260506115803 | 75 | 198 | 1.0 | 5.0 | 0.00 | 0.00 | 0.00 | 90 | 1012.3 |
| 20260506115033 | 75 | 139 | 1.0 | 5.0 | 0.00 | 0.00 | 0.00 | 91 | 1012.2 |
| 20260506114534 | 75 | 167 | 1.0 | 4.0 | 0.00 | 0.00 | 0.00 | 91 | 1012.3 |
| 20260506114031 | 75 | 147 | 1.0 | 7.0 | 0.00 | 0.00 | 0.00 | 91 | 1012.2 |
| 20260506113531 | 75 | 187 | 1.0 | 7.0 | 0.00 | 0.00 | 0.00 | 91 | 1012.2 |
| 20260506113255 | 75 | 122 | 2.0 | 9.0 | 0.00 | 0.00 | 0.00 | 91 | 1012.0 |
| 20260506112523 | 75 | 156 | 2.0 | 9.0 | 0.00 | 0.00 | 0.00 | 91 | 1012.0 |
| 20260506112021 | 75 | 181 | 1.0 | 6.0 | 0.00 | 0.00 | 0.00 | 91 | 1011.9 |
| 20260506111519 | 75 | 170 | 1.0 | 7.0 | 0.00 | 0.00 | 0.00 | 91 | 1011.8 |
| 20260506111019 | 75 | 155 | 1.0 | 7.0 | 0.00 | 0.00 | 0.00 | 91 | 1011.9 |
| 20260506110529 | 75 | 143 | 1.0 | 6.0 | 0.00 | 0.00 | 0.00 | 91 | 1011.7 |
| 20260506110246 | 75 | 173 | 2.0 | 6.0 | 0.00 | 0.00 | 0.00 | 91 | 1011.8 |
| 20260506105514 | 75 | 148 | 2.0 | 7.0 | 0.00 | 0.00 | 0.00 | 91 | 1011.8 |
| 20260506105013 | 74 | 180 | 2.0 | 8.0 | 0.00 | 0.00 | 0.00 | 90 | 1011.8 |
| 20260506104514 | 74 | 153 | 2.0 | 8.0 | 0.00 | 0.00 | 0.00 | 90 | 1011.8 |
| 20260506104245 | 74 | 170 | 3.0 | 7.0 | 0.00 | 0.00 | 0.00 | 90 | 1011.9 |
| 20260506103509 | 74 | 140 | 2.0 | 7.0 | 0.00 | 0.00 | 0.00 | 90 | 1011.9 |
| 20260506103007 | 74 | 138 | 2.0 | 7.0 | 0.00 | 0.00 | 0.00 | 90 | 1011.9 |
| 20260506102507 | 74 | 157 | 2.0 | 7.0 | 0.00 | 0.00 | 0.00 | 90 | 1011.9 |
| 20260506102007 | 74 | 155 | 2.0 | 6.0 | 0.00 | 0.00 | 0.00 | 90 | 1011.9 |
| 20260506101504 | 74 | 153 | 2.0 | 6.0 | 0.00 | 0.00 | 0.00 | 90 | 1011.9 |
| 20260506101005 | 74 | 163 | 1.0 | 5.0 | 0.00 | 0.00 | 0.00 | 90 | 1011.8 |
| 20260506100731 | 74 | 140 | 1.0 | 3.0 | 0.00 | 0.00 | 0.00 | 90 | 1011.9 |
| 20260506100618 | 74 | 144 | 1.0 | 2.0 | 0.00 | 0.00 | 0.00 | 90 | 1012.0 |
| 20260506095455 | 74 | 144 | 0.0 | 2.0 | 0.00 | 0.00 | 0.00 | 90 | 1012.0 |
| 20260506094953 | 74 | 146 | 1.0 | 3.0 | 0.00 | 0.00 | 0.00 | 90 | 1012.0 |
| 20260506094452 | 74 | 139 | 1.0 | 3.0 | 0.00 | 0.00 | 0.00 | 90 | 1012.1 |
| 20260506094224 | 74 | 159 | 1.0 | 4.0 | 0.00 | 0.00 | 0.00 | 90 | 1012.1 |
| 20260506093448 | 74 | 164 | 1.0 | 4.0 | 0.00 | 0.00 | 0.00 | 90 | 1012.0 |
| 20260506092951 | 74 | 159 | 1.0 | 4.0 | 0.00 | 0.00 | 0.00 | 90 | 1012.1 |
| 20260506092449 | 74 | 135 | 1.0 | 4.0 | 0.00 | 0.00 | 0.00 | 90 | 1012.0 |
| 20260506091946 | 74 | 143 | 1.0 | 4.0 | 0.00 | 0.00 | 0.00 | 90 | 1012.0 |
| 20260506091716 | 74 | 196 | 1.0 | 4.0 | 0.00 | 0.00 | 0.00 | 90 | 1012.1 |
| 20260506090938 | 74 | 156 | 1.0 | 6.0 | 0.00 | 0.00 | 0.00 | 90 | 1012.1 |
| 20260506090438 | 74 | 147 | 1.0 | 6.0 | 0.00 | 0.00 | 0.00 | 90 | 1012.1 |
| 20260506085938 | 74 | 96 | 1.0 | 4.0 | 0.00 | 0.00 | 0.00 | 90 | 1012.0 |
| 20260506085435 | 74 | 96 | 2.0 | 6.0 | 0.00 | 0.00 | 0.00 | 90 | 1012.1 |
| 20260506085209 | 74 | 144 | 3.0 | 7.0 | 0.00 | 0.00 | 0.00 | 90 | 1012.0 |
| 20260506084434 | 74 | 132 | 2.0 | 7.0 | 0.00 | 0.00 | 0.00 | 90 | 1012.1 |
| 20260506083933 | 74 | 140 | 2.0 | 6.0 | 0.00 | 0.00 | 0.00 | 89 | 1012.1 |
| 20260506083433 | 74 | 113 | 2.0 | 6.0 | 0.00 | 0.00 | 0.00 | 89 | 1012.1 |
| 20260506082933 | 74 | 146 | 2.0 | 6.0 | 0.00 | 0.00 | 0.00 | 89 | 1012.3 |
| 20260506082433 | 74 | 165 | 3.0 | 6.0 | 0.00 | 0.00 | 0.00 | 89 | 1012.3 |
| 20260506081935 | 74 | 170 | 2.0 | 5.0 | 0.00 | 0.00 | 0.00 | 89 | 1012.2 |
| 20260506081702 | 74 | 108 | 2.0 | 7.0 | 0.00 | 0.00 | 0.00 | 89 | 1012.2 |
| 20260506080932 | 74 | 153 | 2.0 | 7.0 | 0.00 | 0.00 | 0.00 | 89 | 1012.2 |
| 20260506080430 | 74 | 157 | 2.0 | 8.0 | 0.00 | 0.00 | 0.00 | 89 | 1012.2 |
| 20260506072925 | 74 | 153 | 2.0 | 7.0 | 0.00 | 0.00 | 0.00 | 88 | 1012.4 |
| 20260506072426 | 74 | 176 | 2.0 | 7.0 | 0.00 | 0.00 | 0.00 | 88 | 1012.4 |
| 20260506071924 | 74 | 161 | 2.0 | 7.0 | 0.00 | 0.00 | 0.00 | 88 | 1012.4 |
| 20260506071422 | 74 | 185 | 2.0 | 6.0 | 0.00 | 0.00 | 0.00 | 88 | 1012.5 |
| 20260506070921 | 74 | 223 | 1.0 | 6.0 | 0.00 | 0.00 | 0.00 | 88 | 1012.4 |
| 20260506070422 | 74 | 129 | 1.0 | 7.0 | 0.00 | 0.00 | 0.00 | 88 | 1012.3 |
| 20260506062413 | 74 | 150 | 1.0 | 5.0 | 0.00 | 0.00 | 0.00 | 87 | 1012.2 |
| 20260506061908 | 74 | 157 | 1.0 | 8.0 | 0.00 | 0.00 | 0.00 | 87 | 1012.4 |
| 20260506061636 | 74 | 188 | 1.0 | 9.0 | 0.00 | 0.00 | 0.00 | 87 | 1012.4 |
| 20260506060904 | 74 | 184 | 2.0 | 9.0 | 0.00 | 0.00 | 0.00 | 87 | 1012.4 |
| 20260506060406 | 74 | 150 | 3.0 | 9.0 | 0.00 | 0.00 | 0.00 | 87 | 1012.4 |
| 20260506051354 | 74 | 157 | 3.0 | 10.0 | 0.00 | 0.00 | 0.00 | 86 | 1012.7 |
| 20260506051126 | 74 | 165 | 2.0 | 7.0 | 0.00 | 0.00 | 0.00 | 86 | 1012.7 |
| 20260506050353 | 75 | 168 | 3.0 | 10.0 | 0.00 | 0.00 | 0.00 | 86 | 1012.6 |
| 20260506044850 | 75 | 215 | 2.0 | 9.0 | 0.00 | 0.00 | 0.00 | 86 | 1012.5 |
| 20260506044352 | 75 | 172 | 3.0 | 9.0 | 0.00 | 0.00 | 0.00 | 86 | 1012.5 |
| 20260506043844 | 75 | 198 | 2.0 | 9.0 | 0.00 | 0.00 | 0.00 | 86 | 1012.5 |
| 20260506043344 | 75 | 148 | 2.0 | 9.0 | 0.00 | 0.00 | 0.00 | 86 | 1012.6 |
| 20260506042846 | 75 | 192 | 3.0 | 9.0 | 0.00 | 0.00 | 0.00 | 86 | 1012.5 |
| 20260506042345 | 75 | 171 | 3.0 | 12.0 | 0.00 | 0.00 | 0.00 | 86 | 1012.6 |
| 20260506041844 | 75 | 167 | 3.0 | 12.0 | 0.00 | 0.00 | 0.00 | 86 | 1012.5 |
| 20260506041617 | 75 | 167 | 3.0 | 10.0 | 0.00 | 0.00 | 0.00 | 86 | 1012.5 |
| 20260506040841 | 75 | 247 | 3.0 | 16.0 | 0.00 | 0.00 | 0.00 | 85 | 1012.4 |
| 20260506040341 | 75 | 164 | 3.0 | 16.0 | 0.00 | 0.00 | 0.00 | 85 | 1012.4 |
| 20260506035839 | 75 | 144 | 3.0 | 10.0 | 0.00 | 0.00 | 0.00 | 85 | 1012.3 |
| 20260506035340 | 75 | 148 | 3.0 | 10.0 | 0.00 | 0.00 | 0.00 | 85 | 1012.4 |
| 20260506034839 | 75 | 145 | 2.0 | 11.0 | 0.00 | 0.00 | 0.00 | 85 | 1012.4 |
| 20260506034338 | 75 | 148 | 3.0 | 11.0 | 0.00 | 0.00 | 0.00 | 85 | 1012.4 |
| 20260506033832 | 75 | 186 | 3.0 | 10.0 | 0.00 | 0.00 | 0.00 | 85 | 1012.2 |
| 20260506033333 | 75 | 140 | 3.0 | 14.0 | 0.00 | 0.00 | 0.00 | 85 | 1012.4 |
| 20260506032835 | 75 | 171 | 3.0 | 14.0 | 0.00 | 0.00 | 0.00 | 85 | 1012.2 |
| 20260506032334 | 75 | 151 | 2.0 | 11.0 | 0.00 | 0.00 | 0.00 | 85 | 1012.3 |
| 20260506032103 | 75 | 167 | 2.0 | 7.0 | 0.00 | 0.00 | 0.00 | 85 | 1012.2 |
| 20260506031334 | 75 | 179 | 3.0 | 12.0 | 0.00 | 0.00 | 0.00 | 85 | 1012.1 |
| 20260506030825 | 75 | 247 | 4.0 | 15.0 | 0.00 | 0.00 | 0.00 | 85 | 1012.1 |
| 20260506030328 | 75 | 213 | 4.0 | 15.0 | 0.00 | 0.00 | 0.00 | 85 | 1012.0 |
| 20260506025826 | 75 | 165 | 4.0 | 14.0 | 0.00 | 0.00 | 0.00 | 85 | 1012.0 |
| 20260506025327 | 75 | 194 | 3.0 | 14.0 | 0.00 | 0.00 | 0.00 | 85 | 1012.0 |
| 20260506024827 | 75 | 209 | 3.0 | 11.0 | 0.00 | 0.00 | 0.00 | 85 | 1011.9 |
| 20260506024559 | 75 | 153 | 3.0 | 11.0 | 0.00 | 0.00 | 0.00 | 85 | 1011.8 |
| 20260506024053 | 75 | 144 | 3.0 | 12.0 | 0.00 | 0.00 | 0.00 | 86 | 1011.8 |
| 20260506023324 | 75 | 171 | 3.0 | 12.0 | 0.00 | 0.00 | 0.00 | 86 | 1011.8 |
| 20260506022820 | 75 | 147 | 3.0 | 11.0 | 0.00 | 0.00 | 0.00 | 86 | 1011.6 |
| 20260506022322 | 75 | 190 | 3.0 | 11.0 | 0.00 | 0.00 | 0.00 | 85 | 1011.5 |
| 20260506021821 | 75 | 157 | 3.0 | 8.0 | 0.00 | 0.00 | 0.00 | 85 | 1011.5 |
| 20260506021552 | 75 | 153 | 3.0 | 8.0 | 0.00 | 0.00 | 0.00 | 85 | 1011.5 |
| 20260506020816 | 75 | 149 | 3.0 | 8.0 | 0.00 | 0.00 | 0.00 | 84 | 1011.5 |
| 20260506020316 | 75 | 176 | 2.0 | 8.0 | 0.00 | 0.00 | 0.00 | 84 | 1011.4 |
| 20260506015822 | 75 | 125 | 1.0 | 6.0 | 0.00 | 0.00 | 0.00 | 83 | 1011.4 |
| 20260506015816 | 75 | 151 | 2.0 | 6.0 | 0.00 | 0.00 | 0.00 | 83 | 1011.3 |
| 20260506014815 | 76 | 156 | 1.0 | 5.0 | 0.00 | 0.00 | 0.00 | 83 | 1011.3 |
| 20260506014317 | 76 | 142 | 1.0 | 7.0 | 0.00 | 0.00 | 0.00 | 82 | 1011.4 |
| 20260506013813 | 76 | 198 | 1.0 | 7.0 | 0.00 | 0.00 | 0.00 | 82 | 1011.3 |
| 20260506013313 | 76 | 124 | 2.0 | 7.0 | 0.00 | 0.00 | 0.00 | 82 | 1011.3 |
| 20260506012809 | 76 | 244 | 2.0 | 8.0 | 0.00 | 0.00 | 0.00 | 82 | 1011.3 |
| 20260506012309 | 76 | 169 | 2.0 | 8.0 | 0.00 | 0.00 | 0.00 | 82 | 1011.3 |
| 20260506011811 | 76 | 162 | 2.0 | 8.0 | 0.00 | 0.00 | 0.00 | 81 | 1011.2 |
| 20260506011309 | 76 | 163 | 2.0 | 8.0 | 0.00 | 0.00 | 0.00 | 81 | 1011.3 |
| 20260506011040 | 76 | 165 | 2.0 | 7.0 | 0.00 | 0.00 | 0.00 | 81 | 1011.2 |
| 20260506010305 | 76 | 189 | 1.0 | 7.0 | 0.00 | 0.00 | 0.00 | 80 | 1011.1 |
| 20260506005805 | 76 | 163 | 1.0 | 8.0 | 0.00 | 0.00 | 0.00 | 80 | 1011.1 |
| 20260506005536 | 77 | 207 | 1.0 | 8.0 | 0.00 | 0.00 | 0.00 | 80 | 1011.1 |
| 20260506004805 | 77 | 156 | 1.0 | 11.0 | 0.00 | 0.00 | 0.00 | 79 | 1011.1 |
| 20260506004304 | 77 | 226 | 2.0 | 11.0 | 0.00 | 0.00 | 0.00 | 79 | 1011.1 |
| 20260506003801 | 77 | 207 | 3.0 | 11.0 | 0.00 | 0.00 | 0.00 | 79 | 1011.1 |
| 20260506003302 | 77 | 186 | 3.0 | 11.0 | 0.00 | 0.00 | 0.00 | 78 | 1011.2 |
| 20260506002759 | 77 | 222 | 2.0 | 12.0 | 0.00 | 0.00 | 0.00 | 79 | 1011.1 |
| 20260506002305 | 77 | 182 | 2.0 | 12.0 | 0.00 | 0.00 | 0.00 | 79 | 1011.1 |
| 20260506001759 | 78 | 179 | 1.0 | 11.0 | 0.00 | 0.00 | 0.00 | 79 | 1011.0 |
| 20260506001300 | 78 | 191 | 2.0 | 11.0 | 0.00 | 0.00 | 0.00 | 79 | 1011.0 |
| 20260506000755 | 78 | 203 | 2.0 | 10.0 | 0.00 | 0.00 | 0.00 | 78 | 1011.0 |
| 20260506000255 | 78 | 163 | 3.0 | 10.0 | 0.00 | 0.00 | 0.00 | 78 | 1011.0 |
| 20260505235755 | 78 | 206 | 3.0 | 14.0 | 0.00 | 0.00 | 0.00 | 78 | 1010.9 |
| 20260505235255 | 78 | 238 | 2.0 | 14.0 | 0.00 | 0.00 | 0.00 | 78 | 1011.1 |
| 20260505234757 | 78 | 155 | 3.0 | 14.0 | 0.00 | 0.00 | 0.00 | 78 | 1011.1 |
| 20260505234257 | 78 | 234 | 4.0 | 14.0 | 0.00 | 0.00 | 0.00 | 78 | 1011.1 |
| 20260505233751 | 78 | 222 | 3.0 | 14.0 | 0.00 | 0.00 | 0.00 | 78 | 1011.1 |
| 20260505233252 | 78 | 146 | 2.0 | 10.0 | 0.00 | 0.00 | 0.00 | 78 | 1011.1 |
| 20260505232752 | 78 | 194 | 3.0 | 16.0 | 0.00 | 0.00 | 0.00 | 77 | 1011.1 |
| 20260505232252 | 78 | 246 | 4.0 | 16.0 | 0.00 | 0.00 | 0.00 | 78 | 1011.0 |
| 20260505231745 | 78 | 210 | 3.0 | 10.0 | 0.00 | 0.00 | 0.00 | 78 | 1011.0 |
| 20260505231244 | 79 | 157 | 3.0 | 10.0 | 0.00 | 0.00 | 0.00 | 78 | 1011.1 |
| 20260505230745 | 79 | 244 | 3.0 | 12.0 | 0.00 | 0.00 | 0.00 | 78 | 1011.2 |
| 20260505230244 | 79 | 170 | 2.0 | 12.0 | 0.00 | 0.00 | 0.00 | 77 | 1011.2 |
| 20260505225742 | 79 | 142 | 2.0 | 11.0 | 0.00 | 0.00 | 0.00 | 77 | 1011.2 |
| 20260505225242 | 79 | 122 | 3.0 | 11.0 | 0.00 | 0.00 | 0.00 | 77 | 1011.1 |
| 20260505224739 | 79 | 187 | 2.0 | 6.0 | 0.00 | 0.00 | 0.00 | 77 | 1011.1 |
| 20260505224239 | 79 | 204 | 2.0 | 11.0 | 0.00 | 0.00 | 0.00 | 77 | 1011.3 |
| 20260505223741 | 79 | 158 | 3.0 | 11.0 | 0.00 | 0.00 | 0.00 | 77 | 1011.2 |
| 20260505223238 | 79 | 180 | 4.0 | 12.0 | 0.00 | 0.00 | 0.00 | 77 | 1011.2 |
| 20260505222736 | 79 | 161 | 4.0 | 12.0 | 0.00 | 0.00 | 0.00 | 77 | 1011.2 |
| 20260505222237 | 79 | 135 | 3.0 | 12.0 | 0.00 | 0.00 | 0.00 | 77 | 1011.3 |
| 20260505221728 | 79 | 159 | 3.0 | 11.0 | 0.00 | 0.00 | 0.00 | 77 | 1011.3 |
| 20260505221228 | 79 | 189 | 3.0 | 11.0 | 0.00 | 0.00 | 0.00 | 77 | 1011.3 |
| 20260505220730 | 79 | 174 | 3.0 | 10.0 | 0.00 | 0.00 | 0.00 | 77 | 1011.4 |
| 20260505220502 | 79 | 205 | 3.0 | 10.0 | 0.00 | 0.00 | 0.00 | 77 | 1011.3 |
| 20260505215730 | 79 | 165 | 3.0 | 12.0 | 0.00 | 0.00 | 0.00 | 76 | 1011.5 |
| 20260505215229 | 79 | 208 | 3.0 | 12.0 | 0.00 | 0.00 | 0.00 | 76 | 1011.5 |
| 20260505214727 | 79 | 240 | 3.0 | 13.0 | 0.00 | 0.00 | 0.00 | 76 | 1011.5 |
| 20260505214227 | 79 | 194 | 3.0 | 13.0 | 0.00 | 0.00 | 0.00 | 76 | 1011.5 |
| 20260505213727 | 79 | 194 | 3.0 | 8.0 | 0.00 | 0.00 | 0.00 | 76 | 1011.5 |
| 20260505213226 | 79 | 188 | 3.0 | 14.0 | 0.00 | 0.00 | 0.00 | 76 | 1011.6 |
| 20260505212724 | 80 | 222 | 3.0 | 14.0 | 0.00 | 0.00 | 0.00 | 76 | 1011.5 |
| 20260505212224 | 80 | 182 | 3.0 | 13.0 | 0.00 | 0.00 | 0.00 | 75 | 1011.6 |
| 20260505211722 | 80 | 227 | 4.0 | 14.0 | 0.00 | 0.00 | 0.00 | 75 | 1011.6 |
| 20260505211219 | 80 | 194 | 4.0 | 14.0 | 0.00 | 0.00 | 0.00 | 75 | 1011.6 |
| 20260505210720 | 80 | 172 | 3.0 | 14.0 | 0.00 | 0.00 | 0.00 | 75 | 1011.7 |
| 20260505210220 | 80 | 198 | 3.0 | 14.0 | 0.00 | 0.00 | 0.00 | 75 | 1011.6 |
| 20260505205718 | 80 | 189 | 3.0 | 14.0 | 0.00 | 0.00 | 0.00 | 75 | 1011.7 |
| 20260505205218 | 80 | 142 | 3.0 | 14.0 | 0.00 | 0.00 | 0.00 | 75 | 1011.6 |
| 20260505204715 | 80 | 202 | 3.0 | 14.0 | 0.00 | 0.00 | 0.00 | 75 | 1011.7 |
| 20260505204449 | 79 | 178 | 4.0 | 10.0 | 0.00 | 0.00 | 0.00 | 75 | 1011.6 |
| 20260505204214 | 79 | 138 | 3.0 | 10.0 | 0.00 | 0.00 | 0.00 | 75 | 1011.7 |
| 20260505203213 | 80 | 168 | 4.0 | 10.0 | 0.00 | 0.00 | 0.00 | 75 | 1011.7 |
| 20260505202712 | 80 | 217 | 3.0 | 10.0 | 0.00 | 0.00 | 0.00 | 76 | 1011.8 |
| 20260505202218 | 80 | 175 | 2.0 | 9.0 | 0.00 | 0.00 | 0.00 | 76 | 1011.9 |
| 20260505202212 | 80 | 188 | 3.0 | 10.0 | 0.00 | 0.00 | 0.00 | 75 | 1011.9 |
| 20260505201207 | 79 | 107 | 2.0 | 9.0 | 0.00 | 0.00 | 0.00 | 75 | 1011.9 |
| 20260505200706 | 79 | 171 | 2.0 | 12.0 | 0.00 | 0.00 | 0.00 | 76 | 1012.0 |
| 20260505200206 | 79 | 228 | 2.0 | 12.0 | 0.00 | 0.00 | 0.00 | 76 | 1012.0 |
| 20260505195706 | 79 | 162 | 2.0 | 9.0 | 0.00 | 0.00 | 0.00 | 76 | 1011.9 |
| 20260505195207 | 79 | 182 | 3.0 | 9.0 | 0.00 | 0.00 | 0.00 | 76 | 1012.0 |
| 20260505194931 | 79 | 185 | 3.0 | 13.0 | 0.00 | 0.00 | 0.00 | 75 | 1012.1 |
| 20260505194200 | 79 | 217 | 4.0 | 13.0 | 0.00 | 0.00 | 0.00 | 75 | 1012.0 |
| 20260505193701 | 79 | 173 | 3.0 | 12.0 | 0.00 | 0.00 | 0.00 | 75 | 1012.0 |
| 20260505193159 | 79 | 173 | 3.0 | 11.0 | 0.00 | 0.00 | 0.00 | 75 | 1012.1 |
| 20260505192932 | 79 | 128 | 2.0 | 10.0 | 0.00 | 0.00 | 0.00 | 76 | 1012.1 |
| 20260505192201 | 79 | 90 | 2.0 | 10.0 | 0.00 | 0.00 | 0.00 | 76 | 1012.2 |
| 20260505191657 | 79 | 150 | 3.0 | 9.0 | 0.00 | 0.00 | 0.00 | 75 | 1012.2 |
| 20260505191154 | 79 | 192 | 3.0 | 7.0 | 0.00 | 0.00 | 0.00 | 76 | 1012.2 |
| 20260505190653 | 79 | 148 | 2.0 | 11.0 | 0.00 | 0.00 | 0.00 | 75 | 1012.3 |
| 20260505190425 | 79 | 168 | 2.0 | 11.0 | 0.00 | 0.00 | 0.00 | 75 | 1012.4 |
| 20260505185653 | 79 | 152 | 3.0 | 11.0 | 0.00 | 0.00 | 0.00 | 74 | 1012.4 |
| 20260505185155 | 79 | 211 | 3.0 | 11.0 | 0.00 | 0.00 | 0.00 | 75 | 1012.4 |
| 20260505184650 | 79 | 148 | 3.0 | 10.0 | 0.00 | 0.00 | 0.00 | 75 | 1012.4 |
| 20260505184148 | 80 | 195 | 4.0 | 10.0 | 0.00 | 0.00 | 0.00 | 74 | 1012.5 |
| 20260505183920 | 80 | 197 | 3.0 | 8.0 | 0.00 | 0.00 | 0.00 | 74 | 1012.5 |
| 20260505183147 | 79 | 200 | 2.0 | 6.0 | 0.00 | 0.00 | 0.00 | 73 | 1012.5 |
| 20260505182648 | 80 | 181 | 2.0 | 7.0 | 0.00 | 0.00 | 0.00 | 73 | 1012.6 |
| 20260505182147 | 80 | 142 | 2.0 | 10.0 | 0.00 | 0.00 | 0.00 | 73 | 1012.7 |
| 20260505181646 | 80 | 211 | 3.0 | 10.0 | 0.00 | 0.00 | 0.00 | 73 | 1012.7 |
| 20260505181145 | 80 | 197 | 3.0 | 10.0 | 0.00 | 0.00 | 0.00 | 74 | 1012.7 |
| 20260505180644 | 80 | 167 | 3.0 | 12.0 | 0.00 | 0.00 | 0.00 | 72 | 1012.7 |
| 20260505180144 | 80 | 157 | 3.0 | 12.0 | 0.00 | 0.00 | 0.00 | 71 | 1012.7 |
| 20260505175644 | 81 | 180 | 3.0 | 14.0 | 0.00 | 0.00 | 0.00 | 71 | 1012.7 |
| 20260505175145 | 81 | 214 | 3.0 | 14.0 | 0.00 | 0.00 | 0.00 | 74 | 1012.6 |
| 20260505174651 | 80 | 158 | 3.0 | 15.0 | 0.00 | 0.00 | 0.00 | 72 | 1012.7 |
| 20260505174646 | 80 | 215 | 3.0 | 14.0 | 0.00 | 0.00 | 0.00 | 73 | 1012.7 |
| 20260505173640 | 80 | 203 | 3.0 | 15.0 | 0.00 | 0.00 | 0.00 | 72 | 1012.5 |
| 20260505173142 | 80 | 218 | 3.0 | 13.0 | 0.00 | 0.00 | 0.00 | 72 | 1012.6 |
| 20260505172640 | 79 | 207 | 3.0 | 13.0 | 0.00 | 0.00 | 0.00 | 74 | 1012.6 |
| 20260505172142 | 79 | 150 | 3.0 | 11.0 | 0.00 | 0.00 | 0.00 | 73 | 1012.6 |
| 20260505171639 | 79 | 118 | 2.0 | 11.0 | 0.00 | 0.00 | 0.00 | 73 | 1012.8 |
| 20260505171140 | 78 | 169 | 3.0 | 15.0 | 0.00 | 0.00 | 0.00 | 74 | 1012.9 |
| 20260505170638 | 78 | 175 | 4.0 | 15.0 | 0.00 | 0.00 | 0.00 | 74 | 1012.9 |
| 20260505170139 | 78 | 186 | 3.0 | 15.0 | 0.00 | 0.00 | 0.00 | 74 | 1013.0 |
| 20260505165911 | 78 | 169 | 2.0 | 15.0 | 0.00 | 0.00 | 0.00 | 74 | 1013.0 |
| 20260505165410 | 78 | 117 | 2.0 | 11.0 | 0.00 | 0.00 | 0.00 | 74 | 1013.1 |
| 20260505164634 | 78 | 136 | 2.0 | 8.0 | 0.00 | 0.00 | 0.00 | 73 | 1013.1 |
| 20260505164136 | 78 | 171 | 2.0 | 8.0 | 0.00 | 0.00 | 0.00 | 74 | 1013.1 |
| 20260505163637 | 78 | 226 | 2.0 | 7.0 | 0.00 | 0.00 | 0.00 | 75 | 1013.1 |
| 20260505163137 | 78 | 246 | 2.0 | 7.0 | 0.00 | 0.00 | 0.00 | 76 | 1013.1 |
| 20260505162634 | 78 | 144 | 2.0 | 9.0 | 0.00 | 0.00 | 0.00 | 73 | 1013.2 |
| 20260505162136 | 78 | 161 | 2.0 | 9.0 | 0.00 | 0.00 | 0.00 | 74 | 1013.2 |
| 20260505161630 | 77 | 135 | 3.0 | 7.0 | 0.00 | 0.00 | 0.00 | 73 | 1013.2 |
| 20260505161131 | 78 | 201 | 3.0 | 9.0 | 0.00 | 0.00 | 0.00 | 72 | 1013.3 |